Regional Weather Roundup
Issued by NWS

Home | Current Version | Previous Version | Text Only | Print | Product List | Glossary On
Versions: 1 2 3 4 5 6 7 8 9 10 11 12 13 14 15 16 17 18 19 20 21 22 23 24 25 26 27 28 29 30 31 32 33 34 35 36 37 38 39 40 41 42 43 44 45 46 47 48 49 50
000
ASUS45 KSLC 031210
RWRUT

UTAH REGIONAL WEATHER ROUNDUP
NATIONAL WEATHER SERVICE SALT LAKE CITY UT
600 AM MDT WED JUN 03 2020

UTZ001>011-023>025-031300-

NORTHERN UTAH

CITY           SKY/WX    TMP DP  RH WIND       PRES   REMARKS
BRIGHAM CITY   PTCLDY    59  43  56 CALM      30.12S
HILL AFB       PTCLDY    60  39  45 E15       30.14R
LOGAN          CLEAR     53  45  74 N3        30.15S
OGDEN          PTCLDY    62  38  40 S7        30.12R
SALT LAKE CITY MOCLDY    68  42  38 SE5       30.10R
TOOELE VALLEY  PTCLDY    59  43  55 SW7       30.12R
WENDOVER       PTCLDY    58  41  53 CALM      30.11S
HEBER CITY       N/A     46  43  87 CALM      30.21S
WEST JORDAN    PTCLDY    63  44  50 CALM      30.13S

$$

UTZ011>015-024>027-031300-

CENTRAL/NORTHEAST UTAH

CITY           SKY/WX    TMP DP  RH WIND       PRES   REMARKS
PROVO AIRPORT  MOCLDY    64  44  48 CALM      30.14S
MOAB/CANYONLAN PTCLDY    64  26  23 CALM      30.09R
DELTA          PTCLDY    55  36  47 NW5       30.14R
PRICE          MOCLDY    57  32  38 NE3       30.20R
ROOSEVELT      PTCLDY    59  37  44 W5        30.20R
DUCHESNE       SUNNY     63  36  36 W12       30.21S
VERNAL         PTCLDY    56  36  47 NW7       30.19R

$$

UTZ013>016-019>022-027-031300-

SOUTHERN UTAH

CITY           SKY/WX    TMP DP  RH WIND       PRES   REMARKS
BRYCE CANYON   MOCLDY    49  29  46 NW12      30.35S
CEDAR CITY     MOCLDY    56  37  49 E3        30.20R
MILFORD        PTCLDY    54  33  45 S8        30.16R
PANGUITCH      MOCLDY    48  28  46 S8        30.33R
ST GEORGE      MOSUNNY   71  32  23 S3        30.02R
HANKSVILLE     PTCLDY    59  27  29 CALM      30.13R
KANAB          CLEAR     57  36  44 NE1       30.19S
BLANDING         N/A     55  31  39 N10       30.26R

$$

REGIONAL REPORTS     COLORADO/ARIZONA

CITY           SKY/WX    TMP DP  RH WIND       PRES   REMARKS
CRAIG, CO      PTCLDY    41  37  86 CALM      30.28R
GRAND JUNCTION CLEAR     59  26  28 SE7       30.13R
RIFLE, CO      CLEAR     51  25  36 CALM      30.23R
MONTROSE, CO   CLEAR     54  31  41 SE12      30.23R
CORTEZ, CO     CLEAR     48  38  68 E3        30.22R
COLORADO CITY    N/A     54  36  50 E5        30.18R
PAGE, AZ       PTCLDY    71  29  21 SE3       30.08R
GRAND CANYON   MOCLDY    50  29  44 NE3       30.27R
KINGMAN, AZ    MOCLDY    69  35  28 CALM      30.03S
FLAGSTAFF, AZ  CLOUDY    50  31  48 CALM      30.28S

$$

REGIONAL REPORTS    NEVADA/IDAHO/WYOMING

CITY           SKY/WX    TMP DP  RH WIND       PRES   REMARKS
LAS VEGAS, NV  MOCLDY    84  35  17 CALM      29.93S
ELY, NY        PTCLDY    47  26  44 S12       30.27R
ELKO, NV       PTCLDY    53  36  52 NE5       30.20R
POCATELLO, ID  MOCLDY    55  45  68 NW6       30.13R
BURLEY, ID     PTCLDY    59  47  64 CALM      30.09S
EVANSTON, WY   PTCLDY    54  34  46 S6        30.29R
ROCK SPRINGS,  MOCLDY    53  33  46 W5        30.26S
KEMMERER, WY   PTCLDY    43  36  75 CALM      30.30S

$$




USA.gov is the U.S. government's official web portal to all federal, state and local government web resources and services.